Regional Weather Roundup
Issued by NWS

Home | Current Version | Previous Version | Text Only | Print | Product List | Glossary On
Versions: 1 2 3 4 5 6 7 8 9 10 11 12 13 14 15 16 17 18 19 20 21 22 23 24 25 26 27 28 29 30 31 32 33 34 35 36 37 38 39 40 41 42 43 44 45 46 47 48 49 50
705
ASUS43 KTOP 291508
RWRKS

WEATHER ROUNDUP FOR KANSAS
NATIONAL WEATHER SERVICE GOODLAND KS
1000 AM CDT MON MAY 29 2017

NOTE:  "FAIR" INDICATES FEW OR NO CLOUDS BELOW 12,000 FEET WITH NO
SIGNIFICANT WEATHER AND/OR OBSTRUCTIONS TO VISIBILITY.

KSZ001>006-013>018-027>032-041>047-291600-
NORTHWEST KANSAS

CITY           SKY/WX    TMP DP  RH WIND       PRES   REMARKS
GOODLAND       MOSUNNY   62  47  57 N15       30.19R
HAYS           SUNNY     68  51  54 NW9       30.12R
HILL CITY      SUNNY     68  50  52 N13       30.12S
RUSSELL        SUNNY     68  51  54 NW12      30.08R
$$

KSZ061>065-074>080-084>089-291600-
SOUTHWEST KANSAS

CITY           SKY/WX    TMP DP  RH WIND       PRES   REMARKS
DODGE CITY     SUNNY     70  48  45 N9        30.14S
ELKHART          N/A     59  43  55 MISG        N/A
GARDEN CITY    SUNNY     69  47  45 NW7       30.17R
GREAT BEND     SUNNY     69  51  52 N13       30.11R
LIBERAL        PTSUNNY   63  50  62 NW9       30.20R
PRATT          SUNNY     69  46  43 N16       30.11R
$$

KSZ066>073-081>083-090>101-291600-
SOUTHEAST KANSAS

CITY           SKY/WX    TMP DP  RH WIND       PRES   REMARKS
CHANUTE        SUNNY     75  52  44 NW12      30.03R
COFFEYVILLE    SUNNY     75  57  53 NW8       30.04R
HUTCHINSON     SUNNY     73  51  46 N10       30.07R
MEDICINE LODGE   N/A     75  49  39 N12       30.07R
NEWTON         SUNNY     73  50  44 N13       30.07R
PARSONS        SUNNY     76  52  43 W7        30.04R
WICHITA INTL   MOSUNNY   74  51  44 N12       30.05R
WICHITA JABRA  SUNNY     75  52  44 N14       30.05R
WICHITA MCCONL SUNNY     74  50  42 N8        30.05R
WINFIELD       SUNNY     77  51  40 W9        30.06R
$$

KSZ007>012-019>026-033>040-048>060-102>105-291600-
NORTHEAST KANSAS

CITY           SKY/WX    TMP DP  RH WIND       PRES   REMARKS
CONCORDIA      SUNNY     67  53  61 NW6       30.05R
EMPORIA        SUNNY     72  51  47 NW9       30.03R
LAWRENCE       SUNNY     73  53  49 NW12      30.00R
MANHATTAN      SUNNY     71  53  52 VRB5      30.03R
MARYSVILLE     SUNNY     68  52  56 NW9       30.03R
OLATHE IND     SUNNY     70  52  52 NW16      30.00R
OLATHE EXE     SUNNY     70  52  52 N15G22    29.99R
SALINA         SUNNY     72  52  49 N10       30.06R
TOPEKA BILLARD SUNNY     71  54  54 NW8       30.01R
TOPEKA FORBES  SUNNY     72  54  53 NW10      30.01R
$$




USA.gov is the U.S. government's official web portal to all federal, state and local government web resources and services.